| time (UTC) | temp F | wind direction | speed knots | gust knots | rain 1hr in | rain 24hr in | rain mn in | humidity % | barometer mb |
| 20260506175718 | 68 | 201 | 8.7 | 15.6 | 0.00 | 0.00 | 0.00 | 57 | 1003.0 |
| 20260506175216 | 68 | 177 | 8.7 | 14.8 | 0.00 | 0.00 | 0.00 | 56 | 1003.1 |
| 20260506174708 | 68 | 189 | 7.0 | 15.6 | 0.00 | 0.00 | 0.00 | 56 | 1003.2 |
| 20260506174210 | 69 | 192 | 7.0 | 15.6 | 0.00 | 0.00 | 0.00 | 56 | 1003.4 |
| 20260506173719 | 69 | 154 | 6.1 | 15.6 | 0.00 | 0.00 | 0.00 | 55 | 1003.3 |
| 20260506173212 | 69 | 205 | 6.1 | 12.2 | 0.00 | 0.00 | 0.00 | 55 | 1003.4 |
| 20260506172216 | 69 | 206 | 7.0 | 17.4 | 0.00 | 0.00 | 0.00 | 55 | 1003.3 |
| 20260506171714 | 70 | 162 | 7.8 | 17.4 | 0.00 | 0.00 | 0.00 | 54 | 1003.1 |
| 20260506170706 | 70 | 177 | 8.7 | 20.0 | 0.00 | 0.00 | 0.00 | 53 | 1003.2 |
| 20260506170235 | 70 | 173 | 8.7 | 20.0 | 0.00 | 0.00 | 0.00 | 53 | 1003.2 |
| 20260506165706 | 71 | 208 | 8.7 | 21.7 | 0.00 | 0.00 | 0.00 | 52 | 1003.2 |
| 20260506164715 | 71 | 207 | 8.7 | 21.7 | 0.00 | 0.00 | 0.00 | 51 | 1003.1 |
| 20260506164207 | 71 | 174 | 8.7 | 14.8 | 0.00 | 0.00 | 0.00 | 50 | 1003.2 |
| 20260506163717 | 72 | 175 | 7.8 | 14.8 | 0.00 | 0.00 | 0.00 | 50 | 1003.2 |
| 20260506163216 | 72 | 196 | 7.8 | 20.0 | 0.00 | 0.00 | 0.00 | 50 | 1003.2 |
| 20260506162712 | 72 | 214 | 8.7 | 21.7 | 0.00 | 0.00 | 0.00 | 50 | 1003.1 |
| 20260506162232 | 73 | 182 | 11.3 | 22.6 | 0.00 | 0.00 | 0.00 | 49 | 1003.2 |
| 20260506160235 | 74 | 180 | 10.4 | 20.0 | 0.00 | 0.00 | 0.00 | 47 | 1003.2 |
| 20260506155707 | 74 | 232 | 9.6 | 20.0 | 0.00 | 0.00 | 0.00 | 47 | 1003.2 |
| 20260506155211 | 74 | 196 | 10.4 | 20.0 | 0.00 | 0.00 | 0.00 | 48 | 1003.3 |
| 20260506154209 | 74 | 180 | 8.7 | 16.5 | 0.00 | 0.00 | 0.00 | 48 | 1003.4 |
| 20260506153708 | 74 | 138 | 7.8 | 14.8 | 0.00 | 0.00 | 0.00 | 48 | 1003.5 |
| 20260506153214 | 74 | 188 | 7.8 | 22.6 | 0.00 | 0.00 | 0.00 | 48 | 1003.4 |
| 20260506152211 | 74 | 161 | 8.7 | 22.6 | 0.00 | 0.00 | 0.00 | 48 | 1003.4 |
| 20260506151714 | 74 | 161 | 10.4 | 20.9 | 0.00 | 0.00 | 0.00 | 48 | 1003.4 |
| 20260506151219 | 74 | 205 | 11.3 | 20.9 | 0.00 | 0.00 | 0.00 | 48 | 1003.5 |
| 20260506150714 | 74 | 168 | 10.4 | 22.6 | 0.00 | 0.00 | 0.00 | 48 | 1003.6 |
| 20260506145719 | 74 | 173 | 10.4 | 24.3 | 0.00 | 0.00 | 0.00 | 48 | 1003.6 |
| 20260506144710 | 74 | 199 | 11.3 | 26.1 | 0.00 | 0.00 | 0.00 | 48 | 1003.6 |
| 20260506144211 | 74 | 197 | 12.2 | 26.9 | 0.00 | 0.00 | 0.00 | 47 | 1003.6 |
| 20260506143210 | 76 | 196 | 15.6 | 26.9 | 0.00 | 0.00 | 0.00 | 46 | 1003.6 |
| 20260506142716 | 76 | 187 | 15.6 | 26.9 | 0.00 | 0.00 | 0.00 | 46 | 1003.6 |
| 20260506142209 | 76 | 186 | 13.0 | 23.5 | 0.00 | 0.00 | 0.00 | 45 | 1003.5 |
| 20260506141706 | 77 | 165 | 12.2 | 22.6 | 0.00 | 0.00 | 0.00 | 44 | 1003.5 |
| 20260506141207 | 76 | 194 | 11.3 | 22.6 | 0.00 | 0.00 | 0.00 | 44 | 1003.6 |
| 20260506140715 | 76 | 181 | 9.6 | 21.7 | 0.00 | 0.00 | 0.00 | 44 | 1003.5 |
| 20260506140217 | 76 | 215 | 9.6 | 21.7 | 0.00 | 0.00 | 0.00 | 41 | 1003.6 |
| 20260506135709 | 77 | 217 | 11.3 | 20.0 | 0.00 | 0.00 | 0.00 | 42 | 1003.5 |
| 20260506135219 | 77 | 195 | 11.3 | 20.0 | 0.00 | 0.00 | 0.00 | 42 | 1003.4 |
| 20260506133713 | 78 | 159 | 12.2 | 22.6 | 0.00 | 0.00 | 0.00 | 40 | 1003.4 |
| 20260506133220 | 79 | 177 | 11.3 | 24.3 | 0.00 | 0.00 | 0.00 | 40 | 1003.5 |
| 20260506132711 | 79 | 132 | 11.3 | 24.3 | 0.00 | 0.00 | 0.00 | 39 | 1003.5 |
| 20260506132210 | 79 | 197 | 10.4 | 24.3 | 0.00 | 0.00 | 0.00 | 40 | 1003.6 |
| 20260506131709 | 80 | 198 | 9.6 | 23.5 | 0.00 | 0.00 | 0.00 | 38 | 1003.7 |
| 20260506131214 | 80 | 198 | 10.4 | 24.3 | 0.00 | 0.00 | 0.00 | 39 | 1003.6 |
| 20260506130705 | 80 | 219 | 12.2 | 24.3 | 0.00 | 0.00 | 0.00 | 39 | 1003.7 |
| 20260506130217 | 80 | 200 | 11.3 | 21.7 | 0.00 | 0.00 | 0.00 | 39 | 1003.6 |
| 20260506125713 | 80 | 191 | 9.6 | 21.7 | 0.00 | 0.00 | 0.00 | 39 | 1003.7 |
| 20260506125210 | 79 | 188 | 12.2 | 23.5 | 0.00 | 0.00 | 0.00 | 39 | 1003.7 |
| 20260506123712 | 81 | 178 | 11.3 | 22.6 | 0.00 | 0.00 | 0.00 | 37 | 1003.8 |
| 20260506123217 | 80 | 184 | 12.2 | 24.3 | 0.00 | 0.00 | 0.00 | 37 | 1003.8 |
| 20260506122711 | 79 | 163 | 12.2 | 24.3 | 0.00 | 0.00 | 0.00 | 38 | 1003.8 |
| 20260506122215 | 78 | 221 | 13.0 | 24.3 | 0.00 | 0.00 | 0.00 | 39 | 1003.8 |
| 20260506121216 | 77 | 189 | 13.0 | 24.3 | 0.00 | 0.00 | 0.00 | 39 | 1004.0 |
| 20260506120708 | 77 | 168 | 13.0 | 24.3 | 0.00 | 0.00 | 0.00 | 40 | 1004.0 |
| 20260506120219 | 77 | 194 | 13.0 | 24.3 | 0.00 | 0.00 | 0.00 | 39 | 1003.9 |
| 20260506115707 | 78 | 169 | 13.0 | 23.5 | 0.00 | 0.00 | 0.00 | 38 | 1004.0 |
| 20260506115213 | 78 | 173 | 14.8 | 25.2 | 0.00 | 0.00 | 0.00 | 37 | 1004.0 |
| 20260506114706 | 79 | 159 | 14.8 | 25.2 | 0.00 | 0.00 | 0.00 | 37 | 1004.2 |
| 20260506114219 | 79 | 163 | 14.8 | 25.2 | 0.00 | 0.00 | 0.00 | 38 | 1004.1 |
| 20260506113712 | 79 | 157 | 14.8 | 25.2 | 0.00 | 0.00 | 0.00 | 38 | 1004.1 |
| 20260506113211 | 78 | 165 | 13.9 | 22.6 | 0.00 | 0.00 | 0.00 | 38 | 1004.3 |
| 20260506112708 | 78 | 173 | 12.2 | 21.7 | 0.00 | 0.00 | 0.00 | 38 | 1004.5 |
| 20260506112234 | 79 | 180 | 11.3 | 25.2 | 0.00 | 0.00 | 0.00 | 37 | 1004.5 |
| 20260506110709 | 78 | 192 | 13.0 | 21.7 | 0.00 | 0.00 | 0.00 | 37 | 1004.5 |
| 20260506110209 | 78 | 161 | 12.2 | 20.9 | 0.00 | 0.00 | 0.00 | 37 | 1004.7 |
| 20260506105713 | 78 | 169 | 10.4 | 23.5 | 0.00 | 0.00 | 0.00 | 37 | 1004.6 |
| 20260506105208 | 78 | 157 | 11.3 | 23.5 | 0.00 | 0.00 | 0.00 | 37 | 1004.7 |
| 20260506104707 | 77 | 178 | 12.2 | 23.5 | 0.00 | 0.00 | 0.00 | 38 | 1005.0 |
| 20260506104213 | 77 | 169 | 10.4 | 17.4 | 0.00 | 0.00 | 0.00 | 38 | 1004.9 |
| 20260506103705 | 77 | 168 | 9.6 | 22.6 | 0.00 | 0.00 | 0.00 | 38 | 1005.0 |
| 20260506103217 | 76 | 161 | 10.4 | 22.6 | 0.00 | 0.00 | 0.00 | 37 | 1005.2 |
| 20260506102712 | 76 | 207 | 11.3 | 22.6 | 0.00 | 0.00 | 0.00 | 38 | 1005.4 |
| 20260506102208 | 75 | 159 | 10.4 | 18.2 | 0.00 | 0.00 | 0.00 | 44 | 1005.3 |
| 20260506101711 | 75 | 159 | 10.4 | 18.2 | 0.00 | 0.00 | 0.00 | 45 | 1005.4 |
| 20260506101210 | 74 | 157 | 11.3 | 18.2 | 0.00 | 0.00 | 0.00 | 45 | 1005.6 |
| 20260506100714 | 75 | 130 | 10.4 | 22.6 | 0.00 | 0.00 | 0.00 | 45 | 1005.5 |
| 20260506100228 | 75 | 182 | 10.4 | 22.6 | 0.00 | 0.00 | 0.00 | 45 | 1005.7 |
| 20260506095715 | 75 | 149 | 11.3 | 26.9 | 0.00 | 0.00 | 0.00 | 46 | 1005.9 |
| 20260506095213 | 75 | 171 | 12.2 | 26.9 | 0.00 | 0.00 | 0.00 | 46 | 1005.8 |
| 20260506094712 | 75 | 99 | 12.2 | 26.9 | 0.00 | 0.00 | 0.00 | 46 | 1005.9 |
| 20260506094206 | 75 | 107 | 11.3 | 20.9 | 0.00 | 0.00 | 0.00 | 46 | 1005.9 |
| 20260506093710 | 75 | 180 | 12.2 | 20.9 | 0.00 | 0.00 | 0.00 | 46 | 1006.1 |
| 20260506093206 | 75 | 163 | 12.2 | 20.9 | 0.00 | 0.00 | 0.00 | 46 | 1006.2 |
| 20260506092215 | 74 | 161 | 12.2 | 18.2 | 0.00 | 0.00 | 0.00 | 46 | 1006.4 |
| 20260506091706 | 74 | 148 | 11.3 | 17.4 | 0.00 | 0.00 | 0.00 | 46 | 1006.5 |
| 20260506091212 | 74 | 116 | 10.4 | 19.1 | 0.00 | 0.00 | 0.00 | 48 | 1006.5 |
| 20260506090705 | 74 | 123 | 9.6 | 19.1 | 0.00 | 0.00 | 0.00 | 49 | 1006.5 |
| 20260506090214 | 74 | 109 | 9.6 | 14.8 | 0.00 | 0.00 | 0.00 | 51 | 1006.5 |
| 20260506085706 | 73 | 146 | 10.4 | 14.8 | 0.00 | 0.00 | 0.00 | 50 | 1006.5 |
| 20260506085211 | 73 | 122 | 9.6 | 14.8 | 0.00 | 0.00 | 0.00 | 50 | 1006.6 |
| 20260506084711 | 74 | 146 | 8.7 | 14.8 | 0.00 | 0.00 | 0.00 | 49 | 1006.7 |
| 20260506083716 | 74 | 154 | 7.8 | 13.0 | 0.00 | 0.00 | 0.00 | 50 | 1006.6 |
| 20260506083206 | 73 | 116 | 7.0 | 12.2 | 0.00 | 0.00 | 0.00 | 50 | 1006.6 |
| 20260506082706 | 73 | 136 | 7.0 | 13.0 | 0.00 | 0.00 | 0.00 | 50 | 1006.6 |
| 20260506082217 | 73 | 157 | 7.0 | 13.0 | 0.00 | 0.00 | 0.00 | 49 | 1006.6 |
| 20260506081212 | 73 | 184 | 6.1 | 10.4 | 0.00 | 0.00 | 0.00 | 48 | 1006.4 |
| 20260506080708 | 72 | 147 | 5.2 | 10.4 | 0.00 | 0.00 | 0.00 | 48 | 1006.4 |
| 20260506073219 | 70 | 225 | 4.3 | 8.7 | 0.00 | 0.00 | 0.00 | 53 | 1006.7 |
| 20260506072709 | 69 | 207 | 3.5 | 7.0 | 0.00 | 0.00 | 0.00 | 53 | 1006.7 |
| 20260506072218 | 69 | 178 | 2.6 | 7.0 | 0.00 | 0.00 | 0.00 | 53 | 1006.8 |
| 20260506071711 | 69 | 186 | 3.5 | 6.1 | 0.00 | 0.00 | 0.00 | 54 | 1006.8 |
| 20260506071207 | 68 | 219 | 2.6 | 6.1 | 0.00 | 0.00 | 0.00 | 54 | 1006.8 |
| 20260506070719 | 68 | 173 | 2.6 | 5.2 | 0.00 | 0.00 | 0.00 | 56 | 1006.9 |
| 20260506070205 | 67 | 248 | 2.6 | 5.2 | 0.00 | 0.00 | 0.00 | 56 | 1006.9 |
| 20260506062217 | 64 | 198 | 2.6 | 7.0 | 0.00 | 0.00 | 0.00 | 60 | 1007.1 |
| 20260506061719 | 64 | 215 | 2.6 | 7.0 | 0.00 | 0.00 | 0.00 | 61 | 1007.1 |
| 20260506061208 | 63 | 224 | 3.5 | 7.0 | 0.00 | 0.00 | 0.00 | 61 | 1007.1 |
| 20260506060718 | 63 | 261 | 4.3 | 7.0 | 0.00 | 0.00 | 0.00 | 62 | 1007.2 |
| 20260506060209 | 62 | 234 | 4.3 | 7.0 | 0.00 | 0.00 | 0.00 | 62 | 1007.2 |
| 20260506051214 | 59 | 254 | 3.5 | 7.0 | 0.00 | 0.00 | 0.00 | 70 | 1007.2 |
| 20260506050707 | 58 | 254 | 4.3 | 7.0 | 0.00 | 0.00 | 0.00 | 70 | 1007.1 |
| 20260506050207 | 58 | 236 | 5.2 | 7.0 | 0.00 | 0.00 | 0.00 | 70 | 1007.2 |
| 20260506044215 | 56 | 242 | 3.5 | 5.2 | 0.00 | 0.00 | 0.00 | 72 | 1007.2 |
| 20260506043715 | 56 | 244 | 3.5 | 5.2 | 0.00 | 0.00 | 0.00 | 73 | 1007.1 |
| 20260506043218 | 56 | 231 | 3.5 | 7.0 | 0.00 | 0.00 | 0.00 | 73 | 1007.0 |
| 20260506042713 | 56 | 246 | 3.5 | 7.0 | 0.00 | 0.00 | 0.00 | 73 | 1007.0 |
| 20260506042214 | 56 | 226 | 4.3 | 6.1 | 0.00 | 0.00 | 0.00 | 73 | 1007.0 |
| 20260506041717 | 55 | 232 | 4.3 | 6.1 | 0.00 | 0.00 | 0.00 | 73 | 1007.0 |
| 20260506040719 | 55 | 221 | 3.5 | 5.2 | 0.00 | 0.00 | 0.00 | 74 | 1006.9 |
| 20260506040215 | 55 | 227 | 3.5 | 5.2 | 0.00 | 0.00 | 0.00 | 74 | 1006.9 |
| 20260506035713 | 55 | 234 | 3.5 | 5.2 | 0.00 | 0.00 | 0.00 | 74 | 1006.9 |
| 20260506035211 | 54 | 222 | 3.5 | 6.1 | 0.00 | 0.00 | 0.00 | 74 | 1006.8 |
| 20260506034714 | 54 | 234 | 3.5 | 7.0 | 0.00 | 0.00 | 0.00 | 75 | 1006.8 |
| 20260506034213 | 54 | 234 | 4.3 | 7.0 | 0.00 | 0.00 | 0.00 | 75 | 1006.8 |
| 20260506033717 | 54 | 244 | 4.3 | 7.0 | 0.00 | 0.00 | 0.00 | 75 | 1006.7 |
| 20260506033210 | 54 | 249 | 4.3 | 7.0 | 0.00 | 0.00 | 0.00 | 75 | 1006.7 |
| 20260506032718 | 54 | 257 | 3.5 | 6.1 | 0.00 | 0.00 | 0.00 | 75 | 1006.6 |
| 20260506032206 | 54 | 227 | 3.5 | 6.1 | 0.00 | 0.00 | 0.00 | 75 | 1006.6 |
| 20260506031717 | 54 | 233 | 2.6 | 6.1 | 0.00 | 0.00 | 0.00 | 75 | 1006.5 |
| 20260506031215 | 54 | 226 | 2.6 | 4.3 | 0.00 | 0.00 | 0.00 | 75 | 1006.5 |
| 20260506030712 | 54 | 223 | 1.7 | 3.5 | 0.00 | 0.00 | 0.00 | 75 | 1006.5 |
| 20260506030214 | 54 | 257 | 2.6 | 3.5 | 0.00 | 0.00 | 0.00 | 75 | 1006.5 |
| 20260506025720 | 54 | 233 | 1.7 | 5.2 | 0.00 | 0.00 | 0.00 | 74 | 1006.5 |
| 20260506025214 | 54 | 230 | 2.6 | 5.2 | 0.00 | 0.00 | 0.00 | 74 | 1006.5 |
| 20260506024706 | 54 | 202 | 1.7 | 5.2 | 0.00 | 0.00 | 0.00 | 74 | 1006.5 |
| 20260506024214 | 54 | 258 | 1.7 | 4.3 | 0.00 | 0.00 | 0.00 | 74 | 1006.5 |
| 20260506023211 | 55 | 217 | 2.6 | 4.3 | 0.00 | 0.00 | 0.00 | 74 | 1006.5 |
| 20260506022206 | 55 | 259 | 1.7 | 4.3 | 0.00 | 0.00 | 0.00 | 73 | 1006.5 |
| 20260506021712 | 55 | 270 | 2.6 | 4.3 | 0.00 | 0.00 | 0.00 | 73 | 1006.5 |
| 20260506021212 | 55 | 246 | 3.5 | 4.3 | 0.00 | 0.00 | 0.00 | 73 | 1006.4 |
| 20260506020219 | 56 | 261 | 1.7 | 2.6 | 0.00 | 0.00 | 0.00 | 71 | 1006.2 |
| 20260506015708 | 56 | 266 | 1.7 | 2.6 | 0.00 | 0.00 | 0.00 | 71 | 1006.2 |
| 20260506015213 | 56 | 266 | 0.0 | 0.9 | 0.00 | 0.00 | 0.00 | 71 | 1006.1 |
| 20260506014720 | 56 | 32 | 0.0 | 0.9 | 0.00 | 0.00 | 0.00 | 70 | 1006.0 |
| 20260506014219 | 56 | 32 | 0.0 | 2.6 | 0.00 | 0.00 | 0.00 | 70 | 1005.9 |
| 20260506013715 | 57 | 32 | 0.0 | 2.6 | 0.00 | 0.00 | 0.00 | 70 | 1005.9 |
| 20260506013207 | 57 | 32 | 0.9 | 2.6 | 0.00 | 0.00 | 0.00 | 70 | 1005.9 |
| 20260506012215 | 57 | 55 | 1.7 | 2.6 | 0.00 | 0.00 | 0.00 | 69 | 1005.7 |
| 20260506011704 | 57 | 13 | 1.7 | 4.3 | 0.00 | 0.00 | 0.00 | 69 | 1005.8 |
| 20260506011215 | 58 | 355 | 1.7 | 5.2 | 0.00 | 0.00 | 0.00 | 69 | 1005.8 |
| 20260506010718 | 58 | 9 | 2.6 | 5.2 | 0.00 | 0.00 | 0.00 | 68 | 1005.8 |
| 20260506010213 | 58 | 346 | 2.6 | 5.2 | 0.00 | 0.00 | 0.00 | 68 | 1005.8 |
| 20260506005715 | 58 | 338 | 1.7 | 4.3 | 0.00 | 0.00 | 0.00 | 68 | 1005.7 |
| 20260506005211 | 58 | 343 | 1.7 | 4.3 | 0.00 | 0.00 | 0.00 | 67 | 1005.6 |
| 20260506004706 | 58 | 20 | 1.7 | 4.3 | 0.00 | 0.00 | 0.00 | 66 | 1005.4 |
| 20260506004213 | 59 | 19 | 0.9 | 3.5 | 0.00 | 0.00 | 0.00 | 66 | 1005.4 |
| 20260506003712 | 59 | 275 | 1.7 | 3.5 | 0.00 | 0.00 | 0.00 | 65 | 1005.3 |
| 20260506003218 | 59 | 311 | 2.6 | 4.3 | 0.00 | 0.00 | 0.00 | 65 | 1005.2 |
| 20260506002717 | 59 | 311 | 2.6 | 4.3 | 0.00 | 0.00 | 0.00 | 65 | 1005.1 |
| 20260506001712 | 59 | 234 | 2.6 | 3.5 | 0.00 | 0.00 | 0.00 | 65 | 1005.1 |
| 20260506001219 | 60 | 225 | 2.6 | 3.5 | 0.00 | 0.00 | 0.00 | 65 | 1005.0 |
| 20260506000717 | 60 | 234 | 2.6 | 5.2 | 0.00 | 0.00 | 0.00 | 64 | 1005.0 |
| 20260505235716 | 60 | 228 | 2.6 | 5.2 | 0.00 | 0.00 | 0.00 | 64 | 1004.9 |
| 20260505235216 | 60 | 227 | 3.5 | 5.2 | 0.00 | 0.00 | 0.00 | 64 | 1004.8 |
| 20260505234712 | 60 | 232 | 2.6 | 5.2 | 0.00 | 0.00 | 0.00 | 64 | 1004.8 |
| 20260505234218 | 59 | 188 | 2.6 | 5.2 | 0.00 | 0.00 | 0.00 | 65 | 1004.8 |
| 20260505233743 | 59 | 205 | 2.6 | 4.3 | 0.00 | 0.00 | 0.00 | 65 | 1004.7 |
| 20260505233212 | 59 | 194 | 1.7 | 4.3 | 0.00 | 0.00 | 0.00 | 65 | 1004.7 |
| 20260505232718 | 59 | 167 | 1.7 | 4.3 | 0.00 | 0.00 | 0.00 | 65 | 1004.7 |
| 20260505232216 | 59 | 190 | 1.7 | 4.3 | 0.00 | 0.00 | 0.00 | 65 | 1004.7 |
| 20260505231710 | 59 | 179 | 1.7 | 3.5 | 0.00 | 0.00 | 0.00 | 65 | 1004.7 |
| 20260505231211 | 59 | 170 | 1.7 | 6.1 | 0.00 | 0.00 | 0.00 | 64 | 1004.6 |
| 20260505230715 | 59 | 202 | 2.6 | 6.1 | 0.00 | 0.00 | 0.00 | 64 | 1004.6 |
| 20260505230210 | 59 | 196 | 3.5 | 6.1 | 0.00 | 0.00 | 0.00 | 64 | 1004.5 |
| 20260505225218 | 60 | 185 | 2.6 | 6.1 | 0.00 | 0.00 | 0.00 | 63 | 1004.5 |
| 20260505224712 | 60 | 202 | 2.6 | 6.1 | 0.00 | 0.00 | 0.00 | 63 | 1004.5 |
| 20260505224210 | 60 | 207 | 3.5 | 6.1 | 0.00 | 0.00 | 0.00 | 63 | 1004.4 |
| 20260505223705 | 60 | 178 | 3.5 | 5.2 | 0.00 | 0.00 | 0.00 | 63 | 1004.4 |
| 20260505223205 | 60 | 173 | 3.5 | 7.8 | 0.00 | 0.00 | 0.00 | 63 | 1004.4 |
| 20260505222710 | 60 | 179 | 3.5 | 7.8 | 0.00 | 0.00 | 0.00 | 62 | 1004.3 |
| 20260505221719 | 61 | 178 | 3.5 | 7.8 | 0.00 | 0.00 | 0.00 | 62 | 1004.1 |
| 20260505221209 | 61 | 198 | 3.5 | 7.8 | 0.00 | 0.00 | 0.00 | 61 | 1004.1 |
| 20260505220714 | 61 | 211 | 3.5 | 7.8 | 0.00 | 0.00 | 0.00 | 61 | 1004.0 |
| 20260505220211 | 61 | 169 | 2.6 | 7.8 | 0.00 | 0.00 | 0.00 | 60 | 1004.1 |
| 20260505215714 | 62 | 192 | 3.5 | 9.6 | 0.00 | 0.00 | 0.00 | 60 | 1004.1 |
| 20260505215207 | 62 | 180 | 4.3 | 10.4 | 0.00 | 0.00 | 0.00 | 60 | 1004.0 |
| 20260505214720 | 62 | 216 | 5.2 | 10.4 | 0.00 | 0.00 | 0.00 | 60 | 1004.0 |
| 20260505214214 | 62 | 201 | 5.2 | 10.4 | 0.00 | 0.00 | 0.00 | 60 | 1004.0 |
| 20260505213713 | 62 | 198 | 4.3 | 8.7 | 0.00 | 0.00 | 0.00 | 60 | 1003.9 |
| 20260505213206 | 62 | 213 | 5.2 | 10.4 | 0.00 | 0.00 | 0.00 | 59 | 1003.8 |
| 20260505212719 | 62 | 222 | 5.2 | 11.3 | 0.00 | 0.00 | 0.00 | 59 | 1003.8 |
| 20260505212223 | 62 | 221 | 6.1 | 11.3 | 0.00 | 0.00 | 0.00 | 59 | 1003.8 |
| 20260505211705 | 63 | 215 | 6.1 | 12.2 | 0.00 | 0.00 | 0.00 | 58 | 1003.7 |
| 20260505210711 | 63 | 223 | 7.0 | 13.9 | 0.00 | 0.00 | 0.00 | 58 | 1003.6 |
| 20260505205718 | 63 | 211 | 7.8 | 14.8 | 0.00 | 0.00 | 0.00 | 58 | 1003.4 |
| 20260505205213 | 63 | 235 | 7.8 | 15.6 | 0.00 | 0.00 | 0.00 | 58 | 1003.2 |
| 20260505204713 | 63 | 220 | 7.8 | 16.5 | 0.00 | 0.00 | 0.00 | 57 | 1003.2 |
| 20260505203208 | 64 | 184 | 8.7 | 18.2 | 0.00 | 0.00 | 0.00 | 57 | 1003.0 |
| 20260505202709 | 64 | 169 | 8.7 | 18.2 | 0.00 | 0.00 | 0.00 | 57 | 1003.0 |
| 20260505202206 | 64 | 197 | 9.6 | 20.0 | 0.00 | 0.00 | 0.00 | 57 | 1002.9 |
| 20260505201709 | 64 | 178 | 9.6 | 20.0 | 0.00 | 0.00 | 0.00 | 57 | 1002.9 |
| 20260505201219 | 64 | 189 | 9.6 | 18.2 | 0.00 | 0.00 | 0.00 | 57 | 1002.9 |
| 20260505200705 | 64 | 217 | 8.7 | 17.4 | 0.00 | 0.00 | 0.00 | 56 | 1002.9 |
| 20260505200217 | 64 | 205 | 8.7 | 20.0 | 0.00 | 0.00 | 0.00 | 56 | 1002.9 |
| 20260505195705 | 65 | 207 | 9.6 | 20.0 | 0.00 | 0.00 | 0.00 | 56 | 1002.9 |
| 20260505195217 | 65 | 195 | 9.6 | 20.0 | 0.00 | 0.00 | 0.00 | 56 | 1002.9 |
| 20260505194713 | 65 | 209 | 8.7 | 19.1 | 0.00 | 0.00 | 0.00 | 55 | 1003.0 |
| 20260505194216 | 65 | 157 | 8.7 | 19.1 | 0.00 | 0.00 | 0.00 | 55 | 1002.9 |
| 20260505193719 | 65 | 223 | 9.6 | 19.1 | 0.00 | 0.00 | 0.00 | 55 | 1002.8 |
| 20260505192717 | 65 | 183 | 8.7 | 13.9 | 0.00 | 0.00 | 0.00 | 54 | 1002.7 |
| 20260505192208 | 65 | 154 | 8.7 | 18.2 | 0.00 | 0.00 | 0.00 | 54 | 1002.7 |
| 20260505191705 | 66 | 168 | 8.7 | 18.2 | 0.00 | 0.00 | 0.00 | 54 | 1002.7 |
| 20260505191214 | 66 | 202 | 7.8 | 18.2 | 0.00 | 0.00 | 0.00 | 54 | 1002.8 |
| 20260505190713 | 66 | 216 | 7.0 | 13.9 | 0.00 | 0.00 | 0.00 | 54 | 1002.8 |
| 20260505190214 | 66 | 192 | 7.8 | 15.6 | 0.00 | 0.00 | 0.00 | 54 | 1002.9 |
| 20260505185707 | 66 | 174 | 8.7 | 15.6 | 0.00 | 0.00 | 0.00 | 54 | 1002.9 |
| 20260505185213 | 66 | 208 | 7.8 | 13.9 | 0.00 | 0.00 | 0.00 | 53 | 1002.8 |
| 20260505184716 | 66 | 186 | 7.8 | 14.8 | 0.00 | 0.00 | 0.00 | 53 | 1002.9 |
| 20260505184219 | 66 | 207 | 7.8 | 14.8 | 0.00 | 0.00 | 0.00 | 53 | 1002.9 |
| 20260505183705 | 67 | 186 | 7.8 | 14.8 | 0.00 | 0.00 | 0.00 | 53 | 1002.9 |
| 20260505183216 | 67 | 214 | 7.8 | 13.9 | 0.00 | 0.00 | 0.00 | 52 | 1002.9 |
| 20260505182717 | 67 | 200 | 7.8 | 16.5 | 0.00 | 0.00 | 0.00 | 52 | 1002.9 |
| 20260505182205 | 67 | 219 | 8.7 | 16.5 | 0.00 | 0.00 | 0.00 | 52 | 1002.9 |
| 20260505181719 | 67 | 210 | 8.7 | 16.5 | 0.00 | 0.00 | 0.00 | 51 | 1002.8 |
| 20260505181216 | 67 | 189 | 8.7 | 16.5 | 0.00 | 0.00 | 0.00 | 51 | 1002.9 |
| 20260505180715 | 68 | 144 | 8.7 | 18.2 | 0.00 | 0.00 | 0.00 | 51 | 1002.9 |
| 20260505180211 | 68 | 227 | 8.7 | 19.1 | 0.00 | 0.00 | 0.00 | 51 | 1002.9 |